| time (UTC) | temp F | wind direction | speed knots | gust knots | rain 1hr in | rain 24hr in | rain mn in | humidity % | barometer mb |
| 20260509011047 | 40 | 0.0 | 0.0 | 0.00 | 0.00 | 0.00 | 99 | 1017.7 | |
| 20260509010025 | 41 | 0.0 | 0.0 | 0.00 | 0.00 | 0.00 | 99 | 1017.8 | |
| 20260509005022 | 41 | 0.0 | 0.0 | 0.00 | 0.00 | 0.00 | 99 | 1017.8 | |
| 20260509003015 | 41 | 0.0 | 0.0 | 0.00 | 0.00 | 0.00 | 99 | 1017.9 | |
| 20260509002112 | 41 | 0.0 | 0.0 | 0.00 | 0.00 | 0.00 | 99 | 1017.9 | |
| 20260509001129 | 41 | 0.0 | 0.0 | 0.00 | 0.00 | 0.00 | 99 | 1018.0 | |
| 20260509000106 | 41 | 0.0 | 0.0 | 0.00 | 0.00 | 0.00 | 99 | 1018.1 | |
| 20260508235103 | 41 | 0.0 | 0.0 | 0.00 | 0.00 | 0.00 | 99 | 1018.1 | |
| 20260508233056 | 42 | 0.0 | 0.0 | 0.00 | 0.00 | 0.00 | 99 | 1018.1 | |
| 20260508232113 | 42 | 0.0 | 1.7 | 0.00 | 0.01 | 0.00 | 99 | 1018.1 | |
| 20260508225043 | 43 | 0.0 | 0.9 | 0.00 | 0.01 | 0.00 | 99 | 1018.1 | |
| 20260508224100 | 44 | 0.0 | 1.7 | 0.00 | 0.01 | 0.00 | 99 | 1018.0 | |
| 20260508223037 | 44 | 0.0 | 1.7 | 0.00 | 0.01 | 0.00 | 99 | 1018.1 | |
| 20260508222034 | 44 | 0.0 | 1.7 | 0.00 | 0.01 | 0.00 | 99 | 1018.1 | |
| 20260508221031 | 44 | 0.0 | 0.0 | 0.00 | 0.01 | 0.00 | 99 | 1018.1 | |
| 20260508215017 | 44 | 0.0 | 0.0 | 0.00 | 0.01 | 0.01 | 99 | 1018.0 | |
| 20260508213111 | 44 | 0.0 | 0.0 | 0.00 | 0.01 | 0.01 | 99 | 1018.0 | |
| 20260508212108 | 44 | 0.0 | 0.0 | 0.00 | 0.01 | 0.01 | 99 | 1018.0 | |
| 20260508205058 | 45 | 0.0 | 0.9 | 0.00 | 0.01 | 0.01 | 99 | 1017.9 | |
| 20260508204135 | 45 | 0.0 | 0.0 | 0.00 | 0.01 | 0.01 | 99 | 1017.9 | |
| 20260508201045 | 46 | 0.0 | 0.0 | 0.00 | 0.01 | 0.01 | 99 | 1017.7 | |
| 20260508200043 | 46 | 0.0 | 1.7 | 0.00 | 0.01 | 0.01 | 99 | 1017.8 | |
| 20260508195059 | 46 | 0.0 | 0.0 | 0.00 | 0.01 | 0.01 | 99 | 1017.6 | |
| 20260508194036 | 46 | 0.0 | 0.0 | 0.00 | 0.01 | 0.01 | 98 | 1017.5 | |
| 20260508191026 | 48 | 0.0 | 0.0 | 0.00 | 0.01 | 0.01 | 97 | 1017.0 | |
| 20260508190023 | 49 | 0.0 | 0.0 | 0.00 | 0.01 | 0.01 | 97 | 1016.9 | |
| 20260508185023 | 51 | 0.0 | 0.0 | 0.00 | 0.01 | 0.01 | 94 | 1016.8 | |
| 20260508184017 | 53 | 0.0 | 0.0 | 0.00 | 0.01 | 0.01 | 91 | 1016.6 | |
| 20260508182111 | 55 | 0.0 | 1.7 | 0.00 | 0.01 | 0.01 | 83 | 1016.4 | |
| 20260508181107 | 56 | 135 | 0.0 | 2.6 | 0.00 | 0.01 | 0.01 | 81 | 1016.3 |
| 20260508175122 | 57 | 108 | 0.9 | 2.6 | 0.00 | 0.01 | 0.01 | 78 | 1016.3 |
| 20260508174058 | 58 | 90 | 0.9 | 3.5 | 0.00 | 0.01 | 0.01 | 76 | 1016.2 |
| 20260508173135 | 58 | 45 | 0.0 | 1.7 | 0.00 | 0.02 | 0.01 | 75 | 1016.2 |
| 20260508172052 | 58 | 0.0 | 1.7 | 0.00 | 0.02 | 0.01 | 74 | 1016.1 | |
| 20260508171048 | 59 | 66 | 0.9 | 2.6 | 0.00 | 0.02 | 0.01 | 73 | 1016.1 |
| 20260508170046 | 60 | 354 | 0.9 | 1.7 | 0.00 | 0.02 | 0.01 | 70 | 1015.9 |
| 20260508165042 | 62 | 0.0 | 0.0 | 0.00 | 0.02 | 0.01 | 61 | 1015.9 | |
| 20260508164039 | 62 | 77 | 0.9 | 3.5 | 0.00 | 0.02 | 0.01 | 61 | 1016.0 |
| 20260508163056 | 63 | 90 | 0.0 | 1.7 | 0.00 | 0.02 | 0.01 | 63 | 1015.9 |
| 20260508162033 | 64 | 99 | 0.9 | 3.5 | 0.00 | 0.02 | 0.01 | 60 | 1015.9 |
| 20260508161030 | 64 | 68 | 0.0 | 1.7 | 0.00 | 0.02 | 0.01 | 63 | 1015.9 |
| 20260508160047 | 63 | 348 | 0.9 | 1.7 | 0.00 | 0.02 | 0.01 | 63 | 1015.9 |
| 20260508155024 | 61 | 0.0 | 1.7 | 0.00 | 0.02 | 0.01 | 65 | 1015.9 | |
| 20260508153017 | 63 | 270 | 0.0 | 1.7 | 0.00 | 0.02 | 0.01 | 64 | 1015.9 |
| 20260508152115 | 64 | 113 | 0.0 | 1.7 | 0.00 | 0.02 | 0.01 | 63 | 1015.9 |
| 20260508151111 | 63 | 108 | 0.0 | 1.7 | 0.00 | 0.02 | 0.01 | 61 | 1015.9 |
| 20260508150108 | 63 | 100 | 0.9 | 2.6 | 0.00 | 0.02 | 0.01 | 61 | 1015.9 |
| 20260508145106 | 64 | 95 | 0.9 | 3.5 | 0.00 | 0.02 | 0.01 | 61 | 1016.0 |
| 20260508142055 | 64 | 122 | 0.0 | 2.6 | 0.00 | 0.02 | 0.01 | 62 | 1016.3 |
| 20260508140049 | 60 | 180 | 0.0 | 2.6 | 0.00 | 0.02 | 0.01 | 66 | 1016.5 |
| 20260508135106 | 60 | 90 | 0.9 | 1.7 | 0.00 | 0.02 | 0.01 | 66 | 1016.6 |
| 20260508133039 | 60 | 85 | 0.9 | 1.7 | 0.00 | 0.02 | 0.01 | 68 | 1016.7 |
| 20260508131033 | 59 | 0.0 | 1.7 | 0.00 | 0.02 | 0.01 | 69 | 1016.7 | |
| 20260508130050 | 61 | 232 | 0.9 | 3.5 | 0.00 | 0.02 | 0.01 | 68 | 1016.8 |
| 20260508125027 | 61 | 62 | 0.9 | 2.6 | 0.00 | 0.02 | 0.01 | 63 | 1016.9 |
| 20260508124044 | 59 | 13 | 0.9 | 3.5 | 0.00 | 0.02 | 0.01 | 69 | 1016.9 |
| 20260508123021 | 59 | 0.0 | 1.7 | 0.00 | 0.02 | 0.01 | 69 | 1016.9 | |
| 20260508122058 | 59 | 90 | 0.0 | 1.7 | 0.00 | 0.02 | 0.01 | 69 | 1016.8 |
| 20260508121217 | 60 | 97 | 0.9 | 3.5 | 0.00 | 0.02 | 0.01 | 69 | 1016.9 |
| 20260508120111 | 58 | 270 | 0.9 | 2.6 | 0.00 | 0.02 | 0.01 | 69 | 1016.8 |
| 20260508115108 | 58 | 0.0 | 1.7 | 0.00 | 0.02 | 0.01 | 71 | 1016.8 | |
| 20260508114105 | 59 | 225 | 0.9 | 3.5 | 0.00 | 0.02 | 0.01 | 70 | 1016.9 |
| 20260508111056 | 59 | 103 | 0.9 | 3.5 | 0.00 | 0.02 | 0.01 | 69 | 1016.9 |
| 20260508110052 | 58 | 90 | 0.0 | 2.6 | 0.00 | 0.02 | 0.01 | 70 | 1017.1 |
| 20260508105050 | 57 | 0.0 | 1.7 | 0.00 | 0.02 | 0.01 | 74 | 1017.0 | |
| 20260508104046 | 58 | 90 | 0.0 | 2.6 | 0.00 | 0.02 | 0.01 | 73 | 1017.1 |
| 20260508103043 | 58 | 308 | 0.9 | 2.6 | 0.00 | 0.02 | 0.01 | 71 | 1017.1 |
| 20260508102040 | 59 | 90 | 0.0 | 1.7 | 0.00 | 0.02 | 0.01 | 71 | 1017.1 |
| 20260508101036 | 59 | 304 | 0.9 | 3.5 | 0.00 | 0.02 | 0.01 | 72 | 1017.1 |
| 20260508095030 | 57 | 68 | 0.0 | 1.7 | 0.00 | 0.02 | 0.01 | 71 | 1017.2 |
| 20260508094027 | 56 | 120 | 0.9 | 3.5 | 0.00 | 0.02 | 0.01 | 74 | 1017.2 |
| 20260508093024 | 56 | 73 | 0.9 | 4.3 | 0.00 | 0.02 | 0.01 | 74 | 1017.3 |
| 20260508092021 | 55 | 180 | 0.0 | 1.7 | 0.00 | 0.02 | 0.01 | 78 | 1017.3 |
| 20260508091017 | 55 | 5 | 0.9 | 3.5 | 0.00 | 0.02 | 0.01 | 76 | 1017.3 |
| 20260508085134 | 53 | 90 | 0.0 | 1.7 | 0.00 | 0.02 | 0.01 | 79 | 1017.5 |
| 20260508083103 | 53 | 90 | 0.0 | 1.7 | 0.00 | 0.02 | 0.01 | 80 | 1017.5 |
| 20260508082059 | 53 | 90 | 0.9 | 2.6 | 0.00 | 0.02 | 0.01 | 79 | 1017.5 |
| 20260508081056 | 53 | 75 | 0.0 | 1.7 | 0.00 | 0.02 | 0.01 | 83 | 1017.5 |
| 20260508080114 | 52 | 90 | 0.0 | 1.7 | 0.00 | 0.02 | 0.01 | 82 | 1017.5 |
| 20260508075050 | 52 | 0.0 | 1.7 | 0.00 | 0.02 | 0.01 | 84 | 1017.5 | |
| 20260508074047 | 52 | 90 | 0.0 | 1.7 | 0.00 | 0.02 | 0.01 | 82 | 1017.4 |
| 20260508073044 | 53 | 135 | 0.0 | 1.7 | 0.00 | 0.02 | 0.01 | 84 | 1017.4 |
| 20260508072040 | 52 | 64 | 0.9 | 2.6 | 0.00 | 0.02 | 0.01 | 85 | 1017.3 |
| 20260508071038 | 52 | 36 | 0.9 | 2.6 | 0.00 | 0.02 | 0.01 | 88 | 1017.3 |
| 20260508070035 | 51 | 74 | 0.9 | 2.6 | 0.00 | 0.02 | 0.01 | 89 | 1017.0 |
| 20260508064048 | 50 | 90 | 0.0 | 1.7 | 0.00 | 0.02 | 0.01 | 91 | 1016.9 |
| 20260508063025 | 49 | 90 | 0.0 | 2.6 | 0.00 | 0.02 | 0.01 | 92 | 1016.8 |
| 20260508062022 | 49 | 90 | 0.0 | 1.7 | 0.00 | 0.02 | 0.01 | 93 | 1016.6 |
| 20260508061018 | 49 | 0 | 0.0 | 1.7 | 0.00 | 0.02 | 0.01 | 95 | 1016.6 |
| 20260508060015 | 48 | 0.0 | 1.7 | 0.00 | 0.02 | 0.01 | 95 | 1016.6 | |
| 20260508055113 | 48 | 0.0 | 1.7 | 0.00 | 0.02 | 0.01 | 96 | 1016.5 | |
| 20260508054109 | 48 | 0.0 | 0.9 | 0.00 | 0.02 | 0.01 | 97 | 1016.4 | |
| 20260508053106 | 47 | 0.0 | 0.9 | 0.00 | 0.02 | 0.01 | 97 | 1016.3 | |
| 20260508052103 | 47 | 0.0 | 0.0 | 0.00 | 0.02 | 0.01 | 98 | 1016.4 | |
| 20260508051059 | 47 | 0.0 | 0.0 | 0.00 | 0.02 | 0.01 | 98 | 1016.4 | |
| 20260508044053 | 47 | 0.0 | 0.0 | 0.00 | 0.07 | 0.01 | 99 | 1016.0 | |
| 20260508043047 | 46 | 0.0 | 0.0 | 0.00 | 0.08 | 0.01 | 99 | 1016.0 | |
| 20260508041041 | 46 | 0.0 | 0.9 | 0.00 | 0.09 | 0.01 | 99 | 1016.0 | |
| 20260508040038 | 46 | 0.0 | 0.9 | 0.00 | 0.09 | 0.01 | 99 | 1016.0 | |
| 20260508035038 | 46 | 0.0 | 0.0 | 0.00 | 0.09 | 0.01 | 99 | 1015.8 | |
| 20260508034032 | 46 | 0.0 | 0.0 | 0.00 | 0.09 | 0.01 | 99 | 1015.9 | |
| 20260508033029 | 46 | 0.0 | 0.0 | 0.00 | 0.09 | 0.01 | 99 | 1015.8 | |
| 20260508031103 | 46 | 0.0 | 0.0 | 0.00 | 0.09 | 0.01 | 99 | 1015.7 | |
| 20260508030020 | 46 | 0.0 | 0.0 | 0.00 | 0.09 | 0.01 | 99 | 1015.6 | |
| 20260508025016 | 47 | 0.0 | 0.0 | 0.00 | 0.09 | 0.01 | 99 | 1015.6 | |
| 20260508024113 | 47 | 0.0 | 0.0 | 0.00 | 0.09 | 0.01 | 99 | 1015.7 | |
| 20260508023110 | 47 | 0.0 | 0.0 | 0.00 | 0.09 | 0.01 | 99 | 1015.7 | |
| 20260508021104 | 47 | 0.0 | 0.0 | 0.00 | 0.11 | 0.01 | 99 | 1015.7 | |
| 20260508020121 | 47 | 0.0 | 0.0 | 0.00 | 0.13 | 0.01 | 99 | 1015.7 | |
| 20260508015057 | 47 | 0.0 | 0.0 | 0.00 | 0.13 | 0.01 | 99 | 1015.8 | |
| 20260508014054 | 47 | 0.0 | 0.0 | 0.00 | 0.13 | 0.01 | 99 | 1015.8 | |
| 20260508013051 | 47 | 0.0 | 0.0 | 0.00 | 0.14 | 0.01 | 99 | 1015.9 |